Location: Marcé
(47.5801°N, 0.3280°W)
Time: 06:13:23
(UTC+01:00)

Altair - Pass Details

Date: 13 December 2021
Orbit: 1501 x 1683 km, 47.2° (Epoch: 21 January)

Event Time Altitude Azimuth Distance (km) Brightness Sun altitude
Rises 18:43:27 0° 285° (WNW) 4,754 11.1 -14.9°
Reaches altitude 10° 18:46:34 10° 283° (WNW) 3,745 10.5 -15.4°
Maximum altitude 18:55:55 71° 203° (SSW) 1,597 7.7 -16.9°
Drops below altitude 10° 19:05:00 10° 121° (ESE) 3,649 9.1 -18.4°
Enters shadow 19:05:11 - 121° (ESE) 3,706 9.1 -18.4°
Sets 19:08:00 0° 120° (ESE) 4,626 - -18.9°
